This demonstration page uses our WeatherBlox Daily Observations layout. Learn more.

Left ArrowRight Arrow

39.92423, -83.80882

Hourly Observations for June 10, 2021

Temp ( °F °C ) Dew Point ( °F °C ) Humidity (%) Winds ( mph kmh ) Pressure ( in mb ) Visibility ( mi km ) Precip ( " mm )
12:56 am 00:56 Clear 66 19 N/A N/A E 5 7 30.02 1017 10 16 N/A
1:18 am 01:18 Mostly Clear with Mist and Fog 66 19 N/A N/A N N/A 30.02 1016 2 3 N/A
1:27 am 01:27 Partly Cloudy 66 19 N/A N/A N N/A 30.01 1016 7 11 N/A
1:56 am 01:56 Mostly Cloudy 66 19 N/A N/A N N/A 30.01 1016 7 11 N/A
2:56 am 02:56 Cloudy 66 19 N/A N/A N N/A 30.00 1016 7 11 N/A
3:47 am 03:47 Cloudy 66 19 N/A N/A NNE 5 7 29.99 1015 10 16 N/A
3:56 am 03:56 Cloudy 66 19 N/A N/A NNE 3 6 30.00 1016 10 16 N/A
4:12 am 04:12 Cloudy 66 19 N/A N/A N 5 7 29.99 1015 10 16 N/A
4:56 am 04:56 Cloudy with Haze 66 19 N/A N/A NE 5 7 29.98 1015 5 8 N/A
5:56 am 05:56 Cloudy with Haze 66 19 N/A N/A ENE 3 6 29.98 1015 4 6 N/A
6:02 am 06:02 Cloudy with Mist and Fog 66 19 N/A N/A ENE 6 9 29.97 1015 2 3 N/A
6:11 am 06:11 Cloudy with Mist and Fog 66 19 N/A N/A ENE 7 11 29.96 1014 1 2 N/A
6:24 am 06:24 Cloudy with Mist and Fog 66 19 N/A N/A ENE 5 7 29.96 1014 2 2 N/A
6:29 am 06:29 Cloudy with Mist and Fog 66 19 N/A N/A ENE 5 7 29.96 1014 1 1 N/A
6:33 am 06:33 Cloudy with Fog 66 19 N/A N/A ENE 8 13 29.96 1014 0 0 N/A
6:56 am 06:56 Cloudy with Fog 68 20 N/A N/A ENE 7 11 29.97 1015 0 0 N/A
7:08 am 07:08 Cloudy with Mist and Fog 68 20 N/A N/A E 8 13 29.96 1015 1 1 N/A
7:12 am 07:12 Cloudy with Mist and Fog 68 20 N/A N/A E 6 9 29.96 1015 1 2 N/A
7:22 am 07:22 Cloudy with Mist and Fog 68 20 N/A N/A ENE 8 13 29.96 1015 2 3 N/A
7:43 am 07:43 Cloudy with Mist and Fog 70 21 N/A N/A ENE 7 11 29.96 1014 3 5 N/A
7:56 am 07:56 Cloudy with Mist and Fog 70 21 N/A N/A E 5 7 29.97 1015 3 5 N/A
8:41 am 08:41 Cloudy 72 22 72 22 100 100 ENE 6 9 29.94 1014 8 13 N/A
8:56 am 08:56 Cloudy 72 22.2 72 22.2 100 100 NE 6 9 29.96 1015 8 13 N/A
9:26 am 09:26 Partly Cloudy 73 23 72 22 94 94 E 6 9 29.95 1014 9 14 N/A
9:39 am 09:39 Mostly Cloudy 73 23 72 22 94 94 ENE 6 9 29.95 1014 10 16 N/A
9:56 am 09:56 Cloudy 74 23.3 72 22.2 94 94 E 7 11 29.97 1015 10 16 N/A
10:09 am 10:09 Cloudy 73 23 73 23 100 100 E 7 11 29.95 1014 9 14 N/A
10:56 am 10:56 Cloudy 74 23.3 73 22.8 97 97 E 5 7 29.97 1015 10 16 N/A
11:56 am 11:56 Cloudy 76 24.4 71 21.7 85 85 E 5 7 29.96 1015 10 16 N/A
12:28 pm 12:28 Cloudy 75 24 72 22 89 89 E 6 9 29.93 1013 10 16 N/A
12:52 pm 12:52 Cloudy 75 24 70 21 83 83 N N/A 29.93 1013 10 16 N/A
12:56 pm 12:56 Cloudy 76 24.4 70 21.1 82 82 N N/A 29.96 1015 10 16 N/A
1:56 pm 13:56 Mostly Cloudy 79 26.1 72 22.2 79 79 N N/A 29.94 1014 10 16 N/A
2:16 pm 14:16 Cloudy 75 24 73 23 94 94 ESE 10 17 29.91 1013 10 16 N/A
2:48 pm 14:48 Cloudy 75 24 73 23 94 94 SE 6 9 29.90 1012 10 16 N/A
2:56 pm 14:56 Cloudy 77 25 76 24.4 96 96 ESE 8 13 29.93 1013 10 16 N/A
3:56 pm 15:56 Cloudy 78 25.6 73 22.8 85 85 E 6 9 29.90 1013 10 16 N/A
4:56 pm 16:56 Cloudy 80 26.7 72 22.2 76 76 N 3 6 29.88 1012 10 16 N/A
5:56 pm 17:56 Cloudy 80 26.7 71 21.7 74 74 NE 6 9 29.88 1012 10 16 N/A
6:56 pm 18:56 Partly Cloudy 80 26.7 71 21.7 74 74 ENE 5 7 29.86 1011 10 16 N/A
7:56 pm 19:56 Mostly Cloudy 79 26.1 72 22.2 79 79 N N/A 29.87 1011 10 16 N/A
8:56 pm 20:56 Mostly Cloudy 77 25 73 22.8 88 88 N N/A 29.87 1011 10 16 N/A
9:56 pm 21:56 Mostly Clear 74 23.3 74 23.3 100 100 N N/A 29.86 1011 10 16 N/A
10:56 pm 22:56 Clear 72 22 N/A N/A ENE 5 7 29.86 1011 10 16 N/A
11:56 pm 23:56 Clear 72 22 N/A N/A N N/A 29.86 1011 10 16 N/A

Powered by AerisWeather